sat.trackr.live / text

‹ back to catalog

IRIDIUM 172

NORAD 43927 · 2019-002F

PAYLOAD ACTIVE UNKNOWN

§ Identity

Operator
Country
US
Launch date
2019-01-11
Launch site
AFWTR
Launch vehicle
Mass (kg)
RCS (m²)

Purposes: comms

External: N2YO · Heavens-Above · Gunter

§ Orbital elements

Epoch: 2026-05-25T02:05:14.733312Z

Period
100.40 min
Inclination
86.3982°
Eccentricity
0.0002236
Mean motion
14.34217223 rev/d
Perigee alt
776.1 km
Apogee alt
779.3 km
Semi-major
7,155.8 km
B*
2.3858e-5
RAAN
3.2296°
Arg perigee
88.9493°
Mean anomaly
271.1959°
Rev number
38,565

§ Raw data

IRIDIUM 1721 43927U 19002F   26145.08697608  .00000087  00000+0  23858-4 0  99932 43927  86.3982   3.2296 0002236  88.9493 271.1959 14.34217223385659

JSON: /api/v1/satellites/43927 · /tle

For live sub-satellite position, see the globe view (requires WebGL).

§ Visibility from observer

Set your observer location to see the next 7 days of passes ≥ 10°. The values pass through the URL so the page stays shareable.

No JS? Fill the form by hand. The geolocation button needs JavaScript.